Location: Lucerne Valley
(34.4439°N, 116.9669°E)
Time: 08:09:42
(UTC-07:00)

Tiangong 2 - Pass Details

Date: 12 October 2017
Orbit: 388 x 392 km, 42.8° (Epoch: 17 October)

Event Time Altitude Azimuth Distance (km) Brightness Sun altitude
Exits shadow 14:34:52 - 309° (NW) 1,506 3.6 -9.2°
Reaches altitude 10° 14:35:09 10° 312° (NW) 1,418 3.5 -9.2°
Maximum altitude 14:37:26 18° 358° (N) 1,045 3.2 -8.7°
Drops below altitude 10° 14:39:44 10° 44° (NE) 1,420 4.5 -8.2°
Sets 14:42:16 0° 64° (ENE) 2,276 6.2 -7.7°
